Location: Savageville
(44.2117°N, 71.8937°W)
Time: 19:08:27
(UTC+00:00)

ARIANE 6 FM1 Upper Stage - Visible Passes

Search period start: 06 October 2024 00:00
Search period end: 16 October 2024 00:00
Orbit: 564 x 594 km, 62.0° (Epoch: 06 October)

Date Brightness Start Highest point End Pass type
(mag) Time Alt. Az. Time Alt. Az. Time Alt. Az.
10 Oct 5.4 00:36:42 10° N 00:37:19 11° N 00:37:19 11° N visible
11 Oct 5.3 00:40:30 10° N 00:41:29 13° N 00:41:29 13° N visible
12 Oct 5.2 00:44:30 10° NNW 00:45:39 14° N 00:45:39 14° N visible
13 Oct 5.1 00:48:34 10° NNW 00:49:49 16° N 00:49:49 16° N visible
13 Oct 5.1 23:15:27 10° N 23:16:03 10° NNE 23:16:40 10° NNE visible
14 Oct 5.1 00:52:40 10° NNW 00:54:00 18° NNW 00:54:00 18° NNW visible
14 Oct 4.9 23:18:48 10° N 23:20:44 13° NNE 23:21:55 12° NE visible
15 Oct 5.1 00:56:49 10° NNW 00:58:12 19° NNW 00:58:12 19° NNW visible
15 Oct 4.6 23:22:37 10° N 23:25:21 16° NNE 23:26:09 15° NE visible
